Location: Lomond
(50.3500°N, 112.6333°W)
Time: 07:56:07
(UTC+00:00)

BEESAT - Visible Passes

Search period start: 06 December 2023 00:00
Search period end: 16 December 2023 00:00
Orbit: 696 x 703 km, 98.5° (Epoch: 05 December)

Date Brightness Start Highest point End Pass type
(mag) Time Alt. Az. Time Alt. Az. Time Alt. Az.
07 Dec ? 14:25:01 10° E 14:27:21 14° NE 14:29:41 10° NNE visible
09 Dec ? 14:12:18 10° ENE 14:13:21 11° NE 14:14:24 10° NE visible
12 Dec ? 14:37:26 10° E 14:40:26 17° NE 14:43:25 10° NNE visible
14 Dec ? 14:24:10 10° E 14:26:23 13° NE 14:28:36 10° NNE visible
